| time (UTC) | temp C | wind direction | speed KPH | gust KPH | rain 1hr cm | rain 24hr cm | rain mn cm | humidity % | barometer mb |
| 20260510130540 | 22 | 0 | 0.0 | 0.0 | 0.00 | 0.61 | 0.00 | 83 | 1010.1 |
| 20260510130048 | 22 | 0 | 0.0 | 1.6 | 0.00 | 0.61 | 0.00 | 83 | 1010.0 |
| 20260510125539 | 22 | 0 | 0.0 | 1.6 | 0.00 | 0.61 | 0.00 | 82 | 1009.9 |
| 20260510125039 | 22 | 0 | 0.0 | 3.2 | 0.00 | 0.61 | 0.00 | 82 | 1009.7 |
| 20260510124547 | 22 | 0 | 0.0 | 3.2 | 0.00 | 0.61 | 0.00 | 83 | 1009.7 |
| 20260510124039 | 22 | 0 | 0.0 | 1.6 | 0.00 | 0.61 | 0.00 | 83 | 1009.8 |
| 20260510123540 | 22 | 34 | 0.0 | 1.6 | 0.00 | 0.61 | 0.00 | 82 | 1009.8 |
| 20260510123052 | 22 | 0 | 0.0 | 1.6 | 0.00 | 0.61 | 0.00 | 84 | 1009.8 |
| 20260510122540 | 21 | 0 | 0.0 | 1.6 | 0.00 | 0.61 | 0.00 | 85 | 1009.8 |
| 20260510122040 | 21 | 0 | 0.0 | 1.6 | 0.00 | 0.61 | 0.00 | 85 | 1009.8 |
| 20260510121545 | 21 | 0 | 0.0 | 1.6 | 0.00 | 0.61 | 0.00 | 85 | 1009.8 |
| 20260510121040 | 21 | 0 | 0.0 | 1.6 | 0.00 | 0.61 | 0.00 | 87 | 1009.5 |
| 20260510120541 | 21 | 0 | 0.0 | 1.6 | 0.00 | 0.61 | 0.00 | 87 | 1009.5 |
| 20260510120043 | 20 | 0 | 0.0 | 3.2 | 0.00 | 0.61 | 0.00 | 88 | 1009.6 |
| 20260510115540 | 20 | 0 | 0.0 | 3.2 | 0.00 | 0.61 | 0.00 | 88 | 1009.5 |
| 20260510115040 | 20 | 103 | 1.6 | 8.0 | 0.00 | 0.61 | 0.00 | 88 | 1009.4 |
| 20260510114551 | 20 | 110 | 3.2 | 8.0 | 0.00 | 0.61 | 0.00 | 88 | 1009.4 |
| 20260510114040 | 20 | 114 | 6.4 | 8.0 | 0.00 | 0.61 | 0.00 | 88 | 1009.5 |
| 20260510113539 | 20 | 115 | 6.4 | 9.7 | 0.00 | 0.61 | 0.00 | 87 | 1009.5 |
| 20260510113054 | 20 | 108 | 8.0 | 11.3 | 0.00 | 0.61 | 0.00 | 87 | 1009.4 |
| 20260510112540 | 20 | 150 | 8.0 | 11.3 | 0.00 | 0.61 | 0.00 | 87 | 1009.5 |
| 20260510112040 | 20 | 91 | 8.0 | 11.3 | 0.00 | 0.61 | 0.00 | 86 | 1009.5 |
| 20260510111546 | 20 | 137 | 8.0 | 9.7 | 0.00 | 0.61 | 0.00 | 86 | 1009.5 |
| 20260510111039 | 20 | 136 | 8.0 | 9.7 | 0.00 | 0.61 | 0.00 | 86 | 1009.6 |
| 20260510110539 | 20 | 118 | 8.0 | 11.3 | 0.00 | 0.61 | 0.00 | 86 | 1009.7 |
| 20260510110056 | 20 | 100 | 8.0 | 11.3 | 0.00 | 0.61 | 0.00 | 86 | 1009.7 |
| 20260510105539 | 20 | 112 | 6.4 | 11.3 | 0.00 | 0.61 | 0.00 | 85 | 1009.8 |
| 20260510105040 | 21 | 100 | 8.0 | 11.3 | 0.00 | 0.61 | 0.00 | 85 | 1009.7 |
| 20260510104548 | 21 | 110 | 6.4 | 9.7 | 0.00 | 0.61 | 0.00 | 85 | 1009.7 |
| 20260510104039 | 21 | 66 | 4.8 | 8.0 | 0.00 | 0.61 | 0.00 | 85 | 1009.7 |
| 20260510103539 | 21 | 77 | 6.4 | 8.0 | 0.00 | 0.61 | 0.00 | 85 | 1009.6 |
| 20260510103052 | 21 | 69 | 4.8 | 9.7 | 0.00 | 0.61 | 0.00 | 85 | 1009.8 |
| 20260510102540 | 21 | 66 | 4.8 | 9.7 | 0.00 | 0.61 | 0.00 | 84 | 1009.6 |
| 20260510102040 | 21 | 50 | 3.2 | 6.4 | 0.00 | 0.61 | 0.00 | 84 | 1009.5 |
| 20260510101600 | 21 | 66 | 3.2 | 6.4 | 0.00 | 0.61 | 0.00 | 84 | 1009.5 |
| 20260510101040 | 21 | 86 | 3.2 | 8.0 | 0.00 | 0.61 | 0.00 | 84 | 1009.5 |
| 20260510100539 | 21 | 69 | 3.2 | 8.0 | 0.00 | 0.61 | 0.00 | 83 | 1009.5 |
| 20260510100053 | 21 | 82 | 4.8 | 11.3 | 0.00 | 0.61 | 0.00 | 83 | 1009.4 |
| 20260510095539 | 21 | 121 | 6.4 | 14.5 | 0.00 | 0.61 | 0.00 | 83 | 1009.4 |
| 20260510095042 | 21 | 129 | 11.3 | 14.5 | 0.00 | 0.61 | 0.00 | 82 | 1009.2 |
| 20260510094552 | 21 | 131 | 9.7 | 14.5 | 0.00 | 0.61 | 0.00 | 83 | 1009.3 |
| 20260510094043 | 21 | 114 | 8.0 | 9.7 | 0.00 | 0.61 | 0.00 | 82 | 1009.4 |
| 20260510093540 | 22 | 116 | 3.2 | 6.4 | 0.00 | 0.61 | 0.00 | 81 | 1009.3 |
| 20260510093048 | 22 | 97 | 3.2 | 4.8 | 0.00 | 0.61 | 0.00 | 81 | 1009.3 |
| 20260510092540 | 21 | 111 | 3.2 | 4.8 | 0.00 | 0.61 | 0.00 | 82 | 1009.3 |
| 20260510092040 | 22 | 85 | 1.6 | 4.8 | 0.00 | 0.61 | 0.00 | 81 | 1009.3 |
| 20260510091543 | 21 | 87 | 3.2 | 4.8 | 0.00 | 0.61 | 0.00 | 82 | 1009.2 |
| 20260510091039 | 22 | 81 | 1.6 | 4.8 | 0.00 | 0.61 | 0.00 | 82 | 1009.3 |
| 20260510090539 | 22 | 0 | 4.8 | 4.8 | 0.00 | 0.61 | 0.00 | 81 | 1009.1 |
| 20260510090050 | 22 | 116 | 1.6 | 4.8 | 0.00 | 0.61 | 0.00 | 81 | 1009.1 |
| 20260510085540 | 22 | 82 | 0.0 | 3.2 | 0.00 | 0.61 | 0.00 | 81 | 1009.1 |
| 20260510085040 | 22 | 0 | 0.0 | 3.2 | 0.00 | 0.61 | 0.00 | 80 | 1009.1 |
| 20260510084601 | 22 | 0 | 0.0 | 6.4 | 0.00 | 0.61 | 0.00 | 80 | 1009.1 |
| 20260510084039 | 22 | 108 | 1.6 | 9.7 | 0.00 | 0.61 | 0.00 | 79 | 1009.1 |
| 20260510083539 | 22 | 122 | 4.8 | 9.7 | 0.00 | 0.61 | 0.00 | 79 | 1009.0 |
| 20260510083047 | 22 | 125 | 6.4 | 9.7 | 0.00 | 0.61 | 0.00 | 80 | 1009.1 |
| 20260510082538 | 22 | 113 | 6.4 | 11.3 | 0.00 | 0.61 | 0.00 | 80 | 1009.0 |
| 20260510082039 | 22 | 100 | 6.4 | 11.3 | 0.00 | 0.61 | 0.00 | 80 | 1009.0 |
| 20260510081607 | 22 | 124 | 8.0 | 11.3 | 0.00 | 0.61 | 0.00 | 80 | 1009.1 |
| 20260510081040 | 22 | 128 | 6.4 | 11.3 | 0.00 | 0.61 | 0.00 | 79 | 1009.1 |
| 20260510080540 | 22 | 136 | 4.8 | 8.0 | 0.00 | 0.61 | 0.00 | 79 | 1009.0 |
| 20260510080057 | 22 | 0 | 1.6 | 4.8 | 0.00 | 0.61 | 0.00 | 79 | 1008.9 |
| 20260510075539 | 23 | 86 | 0.0 | 4.8 | 0.00 | 0.61 | 0.00 | 78 | 1008.9 |
| 20260510075039 | 23 | 126 | 1.6 | 4.8 | 0.00 | 0.61 | 0.00 | 79 | 1008.9 |
| 20260510074552 | 23 | 117 | 1.6 | 3.2 | 0.00 | 0.61 | 0.00 | 79 | 1008.8 |
| 20260510074040 | 23 | 0 | 0.0 | 4.8 | 0.00 | 0.61 | 0.00 | 78 | 1008.9 |
| 20260510073539 | 23 | 72 | 0.0 | 4.8 | 0.00 | 0.61 | 0.00 | 78 | 1008.8 |
| 20260510073050 | 23 | 0 | 1.6 | 4.8 | 0.00 | 0.61 | 0.00 | 77 | 1008.8 |
| 20260510072539 | 23 | 129 | 0.0 | 4.8 | 0.00 | 0.61 | 0.00 | 77 | 1008.9 |
| 20260510072039 | 23 | 91 | 1.6 | 4.8 | 0.00 | 0.61 | 0.00 | 77 | 1009.0 |
| 20260510071548 | 23 | 201 | 1.6 | 4.8 | 0.00 | 0.61 | 0.00 | 77 | 1009.0 |
| 20260510071039 | 23 | 131 | 0.0 | 6.4 | 0.00 | 0.61 | 0.00 | 77 | 1009.1 |
| 20260510070540 | 23 | 0 | 1.6 | 8.0 | 0.00 | 0.61 | 0.00 | 76 | 1009.2 |
| 20260510065540 | 23 | 110 | 1.6 | 11.3 | 0.00 | 0.61 | 0.00 | 76 | 1009.0 |
| 20260510065039 | 23 | 94 | 4.8 | 12.9 | 0.00 | 0.61 | 0.00 | 76 | 1009.1 |
| 20260510064549 | 23 | 131 | 8.0 | 14.5 | 0.00 | 0.61 | 0.00 | 76 | 1009.1 |
| 20260510064039 | 24 | 83 | 6.4 | 14.5 | 0.00 | 0.61 | 0.00 | 76 | 1009.2 |
| 20260510063540 | 24 | 125 | 9.7 | 12.9 | 0.00 | 0.61 | 0.00 | 76 | 1009.3 |
| 20260510063047 | 24 | 127 | 8.0 | 12.9 | 0.00 | 0.61 | 0.00 | 76 | 1009.2 |
| 20260510062539 | 24 | 138 | 8.0 | 12.9 | 0.00 | 0.61 | 0.00 | 76 | 1009.2 |
| 20260510062039 | 24 | 139 | 6.4 | 11.3 | 0.00 | 0.61 | 0.00 | 75 | 1009.2 |
| 20260510061546 | 24 | 129 | 8.0 | 11.3 | 0.00 | 0.61 | 0.00 | 75 | 1009.2 |
| 20260510061039 | 24 | 113 | 8.0 | 14.5 | 0.00 | 0.61 | 0.00 | 75 | 1009.3 |
| 20260510060540 | 24 | 127 | 8.0 | 14.5 | 0.00 | 0.61 | 0.00 | 75 | 1009.2 |
| 20260510060049 | 24 | 127 | 8.0 | 14.5 | 0.00 | 0.61 | 0.00 | 74 | 1009.2 |
| 20260510055541 | 25 | 111 | 8.0 | 14.5 | 0.00 | 0.61 | 0.00 | 74 | 1009.2 |
| 20260510055040 | 25 | 137 | 3.2 | 14.5 | 0.00 | 0.61 | 0.00 | 73 | 1009.2 |
| 20260510054543 | 25 | 129 | 8.0 | 14.5 | 0.00 | 0.61 | 0.00 | 74 | 1009.1 |
| 20260510054040 | 25 | 135 | 6.4 | 12.9 | 0.00 | 0.61 | 0.00 | 74 | 1008.9 |
| 20260510053540 | 25 | 96 | 4.8 | 11.3 | 0.00 | 0.61 | 0.00 | 74 | 1008.8 |
| 20260510053052 | 25 | 188 | 4.8 | 12.9 | 0.00 | 0.61 | 0.00 | 74 | 1008.7 |
| 20260510052543 | 25 | 45 | 6.4 | 12.9 | 0.00 | 0.61 | 0.00 | 75 | 1008.7 |
| 20260510052039 | 25 | 122 | 6.4 | 14.5 | 0.00 | 0.61 | 0.00 | 75 | 1008.6 |
| 20260510051603 | 25 | 153 | 8.0 | 14.5 | 0.00 | 0.61 | 0.00 | 75 | 1008.7 |
| 20260510051039 | 25 | 141 | 4.8 | 12.9 | 0.00 | 0.61 | 0.00 | 75 | 1008.6 |
| 20260510050541 | 25 | 116 | 8.0 | 12.9 | 0.00 | 0.61 | 0.00 | 75 | 1008.6 |
| 20260510050105 | 25 | 127 | 6.4 | 12.9 | 0.00 | 0.61 | 0.00 | 74 | 1008.6 |
| 20260510045540 | 25 | 100 | 6.4 | 14.5 | 0.00 | 0.61 | 0.61 | 74 | 1008.5 |
| 20260510045040 | 25 | 100 | 6.4 | 14.5 | 0.00 | 0.61 | 0.61 | 74 | 1008.5 |
| 20260510044549 | 25 | 122 | 6.4 | 14.5 | 0.00 | 0.61 | 0.61 | 74 | 1008.5 |
| 20260510044040 | 25 | 138 | 6.4 | 14.5 | 0.00 | 0.61 | 0.61 | 73 | 1008.5 |
| 20260510043540 | 25 | 147 | 6.4 | 14.5 | 0.00 | 0.61 | 0.61 | 73 | 1008.5 |
| 20260510043048 | 25 | 131 | 9.7 | 20.9 | 0.00 | 0.61 | 0.61 | 73 | 1008.6 |
| 20260510042539 | 26 | 138 | 9.7 | 20.9 | 0.00 | 0.61 | 0.61 | 73 | 1008.5 |
| 20260510042039 | 26 | 169 | 11.3 | 19.3 | 0.00 | 0.61 | 0.61 | 73 | 1008.5 |
| 20260510041551 | 26 | 152 | 9.7 | 19.3 | 0.00 | 0.61 | 0.61 | 72 | 1008.5 |
| 20260510041039 | 26 | 132 | 11.3 | 19.3 | 0.00 | 0.61 | 0.61 | 71 | 1008.5 |
| 20260510040540 | 26 | 123 | 12.9 | 17.7 | 0.00 | 0.61 | 0.61 | 71 | 1008.5 |
| 20260510040055 | 26 | 133 | 11.3 | 16.1 | 0.00 | 0.61 | 0.61 | 70 | 1008.5 |
| 20260510035540 | 26 | 95 | 11.3 | 16.1 | 0.00 | 0.61 | 0.61 | 70 | 1008.2 |
| 20260510035040 | 26 | 139 | 9.7 | 16.1 | 0.00 | 0.61 | 0.61 | 69 | 1008.2 |
| 20260510034547 | 27 | 122 | 11.3 | 19.3 | 0.00 | 0.61 | 0.61 | 69 | 1008.3 |
| 20260510034040 | 27 | 143 | 11.3 | 19.3 | 0.00 | 0.61 | 0.61 | 69 | 1008.2 |
| 20260510033542 | 27 | 156 | 11.3 | 19.3 | 0.00 | 0.61 | 0.61 | 69 | 1008.2 |
| 20260510033055 | 27 | 127 | 9.7 | 24.1 | 0.00 | 0.61 | 0.61 | 69 | 1008.1 |
| 20260510032539 | 27 | 131 | 12.9 | 24.1 | 0.00 | 0.61 | 0.61 | 68 | 1008.1 |
| 20260510032040 | 27 | 100 | 12.9 | 20.9 | 0.00 | 0.61 | 0.61 | 68 | 1008.1 |
| 20260510031552 | 27 | 131 | 11.3 | 19.3 | 0.00 | 0.61 | 0.61 | 68 | 1008.0 |
| 20260510031037 | 27 | 79 | 11.3 | 19.3 | 0.00 | 0.61 | 0.61 | 67 | 1008.0 |
| 20260510030539 | 27 | 166 | 9.7 | 17.7 | 0.00 | 0.61 | 0.61 | 68 | 1007.9 |
| 20260510030100 | 27 | 80 | 9.7 | 19.3 | 0.00 | 0.61 | 0.61 | 67 | 1007.7 |
| 20260510025540 | 27 | 131 | 11.3 | 19.3 | 0.00 | 0.61 | 0.61 | 67 | 1007.7 |
| 20260510025040 | 27 | 122 | 11.3 | 19.3 | 0.00 | 0.61 | 0.61 | 67 | 1007.7 |
| 20260510024544 | 27 | 101 | 9.7 | 19.3 | 0.00 | 0.61 | 0.61 | 67 | 1007.6 |
| 20260510024041 | 27 | 156 | 9.7 | 17.7 | 0.00 | 0.61 | 0.61 | 67 | 1007.6 |
| 20260510023540 | 27 | 120 | 9.7 | 17.7 | 0.00 | 0.61 | 0.61 | 67 | 1007.5 |
| 20260510023048 | 27 | 98 | 9.7 | 17.7 | 0.00 | 0.61 | 0.61 | 67 | 1007.5 |
| 20260510022540 | 27 | 35 | 9.7 | 16.1 | 0.00 | 0.61 | 0.61 | 67 | 1007.4 |
| 20260510022039 | 27 | 113 | 9.7 | 17.7 | 0.00 | 0.61 | 0.61 | 67 | 1007.3 |
| 20260510021635 | 27 | 126 | 9.7 | 17.7 | 0.00 | 0.61 | 0.61 | 67 | 1007.3 |
| 20260510021039 | 28 | 108 | 9.7 | 19.3 | 0.00 | 0.61 | 0.61 | 67 | 1007.2 |
| 20260510020539 | 28 | 53 | 9.7 | 20.9 | 0.00 | 0.61 | 0.61 | 67 | 1007.2 |
| 20260510020046 | 28 | 66 | 11.3 | 20.9 | 0.00 | 0.61 | 0.61 | 67 | 1007.1 |
| 20260510015539 | 28 | 136 | 8.0 | 19.3 | 0.00 | 0.61 | 0.61 | 67 | 1006.9 |
| 20260510015039 | 28 | 105 | 12.9 | 19.3 | 0.00 | 0.61 | 0.61 | 67 | 1006.9 |
| 20260510014556 | 28 | 124 | 8.0 | 17.7 | 0.00 | 0.61 | 0.61 | 67 | 1006.9 |
| 20260510014039 | 28 | 147 | 11.3 | 17.7 | 0.00 | 0.61 | 0.61 | 65 | 1006.8 |
| 20260510013539 | 28 | 122 | 11.3 | 17.7 | 0.00 | 0.61 | 0.61 | 64 | 1006.7 |
| 20260510013057 | 28 | 101 | 9.7 | 12.9 | 0.00 | 0.61 | 0.61 | 64 | 1006.5 |
| 20260510012539 | 29 | 112 | 9.7 | 12.9 | 0.00 | 0.61 | 0.61 | 63 | 1006.5 |
| 20260510012040 | 29 | 101 | 8.0 | 11.3 | 0.00 | 0.61 | 0.61 | 62 | 1006.4 |
| 20260510011547 | 29 | 132 | 6.4 | 9.7 | 0.00 | 0.61 | 0.61 | 62 | 1006.4 |
| 20260510011040 | 30 | 120 | 4.8 | 9.7 | 0.00 | 0.61 | 0.61 | 61 | 1006.2 |
| 20260510010540 | 30 | 124 | 1.6 | 9.7 | 0.00 | 0.61 | 0.61 | 60 | 1006.2 |
| 20260510010056 | 30 | 113 | 4.8 | 9.7 | 0.00 | 0.61 | 0.61 | 59 | 1006.2 |
| 20260510005540 | 30 | 97 | 3.2 | 9.7 | 0.00 | 0.61 | 0.61 | 58 | 1006.1 |
| 20260510005040 | 31 | 141 | 0.0 | 6.4 | 0.00 | 0.61 | 0.61 | 57 | 1006.1 |
| 20260510004546 | 31 | 148 | 0.0 | 6.4 | 0.00 | 0.61 | 0.61 | 57 | 1006.1 |
| 20260510004039 | 31 | 0 | 1.6 | 8.0 | 0.00 | 0.61 | 0.61 | 56 | 1006.0 |
| 20260510003540 | 31 | 37 | 0.0 | 8.0 | 0.00 | 0.61 | 0.61 | 56 | 1005.9 |
| 20260510003044 | 31 | 101 | 1.6 | 8.0 | 0.00 | 0.61 | 0.61 | 56 | 1006.0 |
| 20260510002539 | 31 | 114 | 1.6 | 8.0 | 0.00 | 0.61 | 0.61 | 55 | 1005.8 |
| 20260510002040 | 31 | 89 | 0.0 | 9.7 | 0.00 | 0.61 | 0.61 | 55 | 1005.8 |
| 20260510001551 | 31 | 276 | 1.6 | 9.7 | 0.00 | 0.61 | 0.61 | 55 | 1005.9 |
| 20260510001040 | 31 | 259 | 4.8 | 9.7 | 0.00 | 0.61 | 0.61 | 56 | 1005.8 |
| 20260510000540 | 31 | 0 | 1.6 | 14.5 | 0.00 | 0.61 | 0.61 | 57 | 1005.8 |
| 20260510000050 | 31 | 82 | 6.4 | 17.7 | 0.00 | 0.61 | 0.61 | 57 | 1005.8 |
| 20260509235543 | 31 | 112 | 8.0 | 17.7 | 0.00 | 0.61 | 0.61 | 58 | 1006.0 |
| 20260509235039 | 31 | 128 | 8.0 | 17.7 | 0.00 | 0.61 | 0.61 | 58 | 1006.1 |
| 20260509234549 | 31 | 188 | 4.8 | 17.7 | 0.00 | 0.61 | 0.61 | 58 | 1006.1 |
| 20260509234041 | 31 | 118 | 8.0 | 17.7 | 0.00 | 0.61 | 0.61 | 58 | 1006.1 |
| 20260509233539 | 31 | 122 | 8.0 | 17.7 | 0.00 | 0.61 | 0.61 | 58 | 1006.1 |
| 20260509233053 | 31 | 130 | 9.7 | 19.3 | 0.00 | 0.61 | 0.61 | 57 | 1006.1 |
| 20260509232539 | 32 | 148 | 6.4 | 19.3 | 0.00 | 0.61 | 0.61 | 57 | 1006.0 |
| 20260509232039 | 32 | 153 | 8.0 | 19.3 | 0.00 | 0.61 | 0.61 | 55 | 1006.0 |
| 20260509231550 | 33 | 157 | 6.4 | 16.1 | 0.00 | 0.61 | 0.61 | 53 | 1005.8 |
| 20260509231040 | 33 | 213 | 1.6 | 9.7 | 0.00 | 0.61 | 0.61 | 51 | 1005.8 |
| 20260509230540 | 33 | 264 | 1.6 | 9.7 | 0.00 | 0.61 | 0.61 | 53 | 1005.8 |
| 20260509230050 | 33 | 96 | 1.6 | 9.7 | 0.00 | 0.61 | 0.61 | 52 | 1005.8 |
| 20260509225540 | 33 | 0 | 3.2 | 9.7 | 0.00 | 0.61 | 0.61 | 52 | 1005.8 |
| 20260509225039 | 33 | 131 | 3.2 | 8.0 | 0.00 | 0.61 | 0.61 | 52 | 1005.8 |
| 20260509224549 | 33 | 184 | 0.0 | 6.4 | 0.00 | 0.61 | 0.61 | 52 | 1005.7 |
| 20260509224039 | 33 | 100 | 1.6 | 6.4 | 0.00 | 0.61 | 0.61 | 52 | 1005.8 |
| 20260509223540 | 33 | 134 | 1.6 | 11.3 | 0.00 | 0.61 | 0.61 | 53 | 1005.8 |
| 20260509223052 | 33 | 114 | 1.6 | 11.3 | 0.00 | 0.61 | 0.61 | 52 | 1005.9 |
| 20260509222539 | 33 | 180 | 1.6 | 6.4 | 0.00 | 0.61 | 0.61 | 52 | 1005.9 |
| 20260509222040 | 33 | 199 | 1.6 | 11.3 | 0.00 | 0.61 | 0.61 | 53 | 1006.0 |
| 20260509221550 | 33 | 0 | 0.0 | 11.3 | 0.00 | 0.61 | 0.61 | 52 | 1006.0 |
| 20260509221040 | 33 | 118 | 3.2 | 11.3 | 0.00 | 0.61 | 0.61 | 52 | 1006.0 |
| 20260509220539 | 33 | 117 | 1.6 | 6.4 | 0.00 | 0.61 | 0.61 | 52 | 1006.0 |
| 20260509220052 | 34 | 153 | 0.0 | 8.0 | 0.00 | 0.61 | 0.61 | 51 | 1005.8 |
| 20260509215541 | 33 | 134 | 1.6 | 8.0 | 0.00 | 0.61 | 0.61 | 51 | 1005.8 |
| 20260509215040 | 34 | 243 | 1.6 | 8.0 | 0.00 | 0.61 | 0.61 | 51 | 1006.0 |
| 20260509214550 | 34 | 0 | 1.6 | 11.3 | 0.00 | 0.61 | 0.61 | 52 | 1006.0 |
| 20260509214039 | 34 | 115 | 1.6 | 11.3 | 0.00 | 0.61 | 0.61 | 51 | 1005.9 |
| 20260509213539 | 34 | 299 | 1.6 | 6.4 | 0.00 | 0.61 | 0.61 | 51 | 1006.0 |
| 20260509213105 | 33 | 0 | 0.0 | 9.7 | 0.00 | 0.61 | 0.61 | 53 | 1006.0 |
| 20260509212540 | 33 | 352 | 1.6 | 9.7 | 0.00 | 0.61 | 0.61 | 52 | 1006.0 |
| 20260509212040 | 33 | 229 | 1.6 | 8.0 | 0.00 | 0.61 | 0.61 | 53 | 1006.2 |
| 20260509211601 | 33 | 293 | 1.6 | 8.0 | 0.00 | 0.61 | 0.61 | 55 | 1006.2 |
| 20260509211040 | 33 | 20 | 1.6 | 14.5 | 0.00 | 0.61 | 0.61 | 55 | 1006.3 |
| 20260509210544 | 33 | 170 | 3.2 | 14.5 | 0.00 | 0.61 | 0.61 | 55 | 1006.3 |
| 20260509210050 | 33 | 243 | 3.2 | 14.5 | 0.00 | 0.61 | 0.61 | 55 | 1006.4 |
| 20260509205539 | 34 | 323 | 0.0 | 9.7 | 0.00 | 0.61 | 0.61 | 54 | 1006.5 |
| 20260509205040 | 33 | 61 | 0.0 | 6.4 | 0.00 | 0.61 | 0.61 | 54 | 1006.6 |
| 20260509204555 | 34 | 340 | 1.6 | 11.3 | 0.00 | 0.61 | 0.61 | 55 | 1006.8 |
| 20260509204040 | 33 | 321 | 0.0 | 11.3 | 0.00 | 0.61 | 0.61 | 55 | 1006.8 |
| 20260509203542 | 33 | 300 | 1.6 | 9.7 | 0.00 | 0.61 | 0.61 | 53 | 1007.0 |
| 20260509203048 | 33 | 0 | 1.6 | 8.0 | 0.00 | 0.61 | 0.61 | 55 | 1007.0 |
| 20260509202541 | 32 | 110 | 1.6 | 11.3 | 0.00 | 0.61 | 0.61 | 58 | 1007.1 |
| 20260509202039 | 31 | 6 | 3.2 | 12.9 | 0.00 | 0.61 | 0.61 | 57 | 1007.3 |
| 20260509201548 | 32 | 288 | 4.8 | 12.9 | 0.00 | 0.61 | 0.61 | 56 | 1007.4 |
| 20260509201039 | 32 | 351 | 4.8 | 11.3 | 0.00 | 0.61 | 0.61 | 57 | 1007.4 |
| 20260509200541 | 33 | 23 | 1.6 | 11.3 | 0.00 | 0.61 | 0.61 | 55 | 1007.5 |
| 20260509200052 | 32 | 52 | 1.6 | 11.3 | 0.00 | 0.61 | 0.61 | 57 | 1007.6 |
| 20260509195539 | 32 | 0 | 1.6 | 6.4 | 0.00 | 0.61 | 0.61 | 59 | 1007.7 |
| 20260509195039 | 31 | 0 | 0.0 | 9.7 | 0.00 | 0.61 | 0.61 | 61 | 1007.7 |
| 20260509194556 | 30 | 0 | 0.0 | 11.3 | 0.00 | 0.61 | 0.61 | 63 | 1007.9 |
| 20260509194040 | 30 | 283 | 6.4 | 12.9 | 0.00 | 0.61 | 0.61 | 62 | 1007.9 |
| 20260509193539 | 30 | 309 | 3.2 | 12.9 | 0.00 | 0.61 | 0.61 | 62 | 1007.9 |
| 20260509193051 | 30 | 297 | 4.8 | 12.9 | 0.00 | 0.61 | 0.61 | 62 | 1008.0 |
| 20260509192539 | 31 | 335 | 1.6 | 14.5 | 0.00 | 0.61 | 0.61 | 62 | 1008.1 |
| 20260509192039 | 30 | 295 | 6.4 | 14.5 | 0.00 | 0.61 | 0.61 | 63 | 1008.0 |
| 20260509191557 | 30 | 295 | 9.7 | 17.7 | 0.00 | 0.61 | 0.61 | 61 | 1008.0 |
| 20260509191040 | 31 | 245 | 1.6 | 17.7 | 0.00 | 0.61 | 0.61 | 63 | 1008.0 |
| 20260509190542 | 30 | 6 | 6.4 | 14.5 | 0.00 | 0.61 | 0.61 | 63 | 1008.1 |
| 20260509190050 | 30 | 301 | 6.4 | 14.5 | 0.00 | 0.61 | 0.61 | 63 | 1008.2 |
| 20260509185539 | 30 | 302 | 3.2 | 14.5 | 0.00 | 0.61 | 0.61 | 61 | 1008.2 |
| 20260509185039 | 31 | 283 | 3.2 | 9.7 | 0.00 | 0.61 | 0.61 | 62 | 1008.3 |
| 20260509184606 | 31 | 312 | 0.0 | 9.7 | 0.00 | 0.61 | 0.61 | 62 | 1008.3 |
| 20260509184039 | 30 | 359 | 1.6 | 11.3 | 0.00 | 0.61 | 0.61 | 66 | 1008.3 |
| 20260509183540 | 30 | 316 | 1.6 | 12.9 | 0.00 | 0.61 | 0.61 | 65 | 1008.3 |
| 20260509183055 | 30 | 359 | 3.2 | 12.9 | 0.00 | 0.61 | 0.61 | 67 | 1008.3 |
| 20260509182539 | 30 | 246 | 6.4 | 12.9 | 0.00 | 0.61 | 0.61 | 68 | 1008.5 |
| 20260509182039 | 30 | 0 | 6.4 | 12.9 | 0.00 | 0.61 | 0.61 | 65 | 1008.6 |
| 20260509181552 | 31 | 302 | 0.0 | 12.9 | 0.00 | 0.61 | 0.61 | 62 | 1008.6 |
| 20260509181040 | 32 | 358 | 3.2 | 12.9 | 0.00 | 0.61 | 0.61 | 61 | 1008.8 |
| 20260509180540 | 31 | 60 | 3.2 | 12.9 | 0.00 | 0.61 | 0.61 | 64 | 1008.8 |
| 20260509180056 | 30 | 0 | 0.0 | 11.3 | 0.00 | 0.61 | 0.61 | 65 | 1008.8 |
| 20260509175542 | 30 | 1 | 1.6 | 11.3 | 0.00 | 0.61 | 0.61 | 66 | 1008.8 |
| 20260509175039 | 31 | 317 | 1.6 | 12.9 | 0.00 | 0.61 | 0.61 | 66 | 1008.9 |
| 20260509174549 | 30 | 0 | 1.6 | 14.5 | 0.00 | 0.61 | 0.61 | 67 | 1008.9 |
| 20260509174038 | 30 | 333 | 8.0 | 14.5 | 0.00 | 0.61 | 0.61 | 68 | 1008.9 |
| 20260509173539 | 31 | 289 | 1.6 | 11.3 | 0.00 | 0.61 | 0.61 | 64 | 1009.0 |
| 20260509173102 | 31 | 291 | 1.6 | 9.7 | 0.00 | 0.61 | 0.61 | 65 | 1009.1 |
| 20260509172540 | 31 | 234 | 1.6 | 11.3 | 0.00 | 0.61 | 0.61 | 64 | 1009.1 |
| 20260509172040 | 31 | 304 | 0.0 | 11.3 | 0.00 | 0.61 | 0.61 | 64 | 1009.2 |
| 20260509171544 | 30 | 176 | 1.6 | 11.3 | 0.00 | 0.61 | 0.61 | 65 | 1009.2 |
| 20260509171043 | 31 | 257 | 1.6 | 8.0 | 0.00 | 0.61 | 0.61 | 65 | 1009.1 |
| 20260509170540 | 30 | 124 | 1.6 | 9.7 | 0.00 | 0.61 | 0.61 | 67 | 1009.2 |
| 20260509170050 | 30 | 319 | 1.6 | 9.7 | 0.00 | 0.61 | 0.61 | 68 | 1009.0 |
| 20260509165540 | 30 | 129 | 4.8 | 11.3 | 0.00 | 0.61 | 0.61 | 67 | 1008.9 |
| 20260509165039 | 30 | 115 | 1.6 | 14.5 | 0.00 | 0.61 | 0.61 | 70 | 1008.8 |
| 20260509164546 | 30 | 234 | 1.6 | 14.5 | 0.00 | 0.61 | 0.61 | 69 | 1009.0 |
| 20260509164040 | 29 | 83 | 4.8 | 12.9 | 0.00 | 0.61 | 0.61 | 69 | 1009.0 |
| 20260509163540 | 29 | 280 | 6.4 | 12.9 | 0.00 | 0.61 | 0.61 | 72 | 1008.9 |
| 20260509163055 | 29 | 108 | 3.2 | 14.5 | 0.00 | 0.61 | 0.61 | 71 | 1008.9 |
| 20260509162539 | 28 | 65 | 3.2 | 14.5 | 0.00 | 0.61 | 0.61 | 71 | 1009.1 |
| 20260509162039 | 28 | 276 | 4.8 | 14.5 | 0.00 | 0.61 | 0.61 | 71 | 1009.2 |
| 20260509161558 | 28 | 219 | 3.2 | 9.7 | 0.00 | 0.61 | 0.61 | 74 | 1009.2 |
| 20260509161040 | 28 | 224 | 3.2 | 9.7 | 0.00 | 0.61 | 0.61 | 76 | 1009.4 |
| 20260509160541 | 27 | 296 | 0.0 | 9.7 | 0.00 | 0.61 | 0.61 | 79 | 1009.5 |
| 20260509160049 | 27 | 0 | 3.2 | 11.3 | 0.00 | 0.61 | 0.61 | 80 | 1009.5 |
| 20260509155539 | 26 | 352 | 0.0 | 11.3 | 0.00 | 0.61 | 0.61 | 81 | 1009.5 |
| 20260509155039 | 26 | 71 | 1.6 | 11.3 | 0.00 | 0.61 | 0.61 | 85 | 1009.5 |
| 20260509154552 | 25 | 117 | 1.6 | 6.4 | 0.00 | 0.61 | 0.61 | 87 | 1009.7 |
| 20260509154040 | 25 | 0 | 1.6 | 6.4 | 0.00 | 0.61 | 0.61 | 87 | 1009.9 |
| 20260509153539 | 25 | 43 | 1.6 | 6.4 | 0.00 | 0.61 | 0.61 | 87 | 1009.8 |
| 20260509153058 | 25 | 24 | 1.6 | 6.4 | 0.05 | 0.61 | 0.61 | 91 | 1009.9 |
| 20260509152540 | 23 | 85 | 1.6 | 8.0 | 0.38 | 0.61 | 0.61 | 94 | 1009.9 |
| 20260509152040 | 23 | 101 | 3.2 | 8.0 | 0.61 | 0.61 | 0.61 | 96 | 1009.8 |
| 20260509151552 | 22 | 49 | 0.0 | 6.4 | 0.61 | 0.61 | 0.61 | 98 | 1009.8 |
| 20260509151039 | 22 | 113 | 1.6 | 6.4 | 0.61 | 0.61 | 0.61 | 98 | 1009.8 |
| 20260509150539 | 22 | 110 | 1.6 | 4.8 | 0.61 | 0.61 | 0.61 | 98 | 1009.7 |
| 20260509150051 | 21 | 109 | 0.0 | 4.8 | 0.61 | 0.61 | 0.61 | 97 | 1009.7 |
| 20260509145540 | 21 | 0 | 0.0 | 8.0 | 0.61 | 0.61 | 0.61 | 97 | 1009.7 |
| 20260509145040 | 22 | 0 | 0.0 | 8.0 | 0.61 | 0.61 | 0.61 | 96 | 1009.9 |
| 20260509144550 | 22 | 132 | 0.0 | 6.4 | 0.61 | 0.61 | 0.61 | 97 | 1009.9 |
| 20260509144040 | 22 | 90 | 3.2 | 6.4 | 0.61 | 0.61 | 0.61 | 96 | 1009.9 |
| 20260509143540 | 22 | 120 | 1.6 | 14.5 | 0.61 | 0.61 | 0.61 | 96 | 1009.9 |
| 20260509143050 | 22 | 133 | 3.2 | 14.5 | 0.53 | 0.53 | 0.53 | 95 | 1009.9 |
| 20260509142539 | 23 | 172 | 4.8 | 11.3 | 0.23 | 0.23 | 0.23 | 95 | 1009.9 |
| 20260509142039 | 23 | 163 | 3.2 | 12.9 | 0.00 | 0.00 | 0.00 | 95 | 1009.8 |
| 20260509141552 | 22 | 91 | 4.8 | 12.9 | 0.00 | 0.00 | 0.00 | 95 | 1009.6 |
| 20260509141041 | 22 | 108 | 4.8 | 9.7 | 0.00 | 0.00 | 0.00 | 95 | 1009.6 |
| 20260509140542 | 22 | 98 | 3.2 | 11.3 | 0.00 | 0.00 | 0.00 | 95 | 1009.6 |
| 20260509140103 | 22 | 117 | 8.0 | 11.3 | 0.00 | 0.00 | 0.00 | 95 | 1009.6 |
| 20260509135540 | 22 | 104 | 6.4 | 11.3 | 0.00 | 0.00 | 0.00 | 95 | 1009.5 |
| 20260509135040 | 22 | 73 | 3.2 | 9.7 | 0.00 | 0.00 | 0.00 | 95 | 1009.5 |
| 20260509134551 | 22 | 110 | 0.0 | 6.4 | 0.00 | 0.00 | 0.00 | 94 | 1009.4 |
| 20260509134040 | 22 | 0 | 1.6 | 9.7 | 0.00 | 0.00 | 0.00 | 95 | 1009.1 |
| 20260509133540 | 23 | 0 | 4.8 | 9.7 | 0.00 | 0.00 | 0.00 | 95 | 1008.9 |
| 20260509133052 | 23 | 103 | 3.2 | 8.0 | 0.00 | 0.00 | 0.00 | 95 | 1008.7 |
| 20260509132540 | 22 | 87 | 0.0 | 6.4 | 0.00 | 0.00 | 0.00 | 95 | 1008.7 |
| 20260509132040 | 22 | 0 | 1.6 | 6.4 | 0.00 | 0.00 | 0.00 | 95 | 1008.9 |
| 20260509131544 | 23 | 78 | 0.0 | 6.4 | 0.00 | 0.00 | 0.00 | 95 | 1009.2 |
| 20260509131039 | 23 | 114 | 1.6 | 6.4 | 0.00 | 0.00 | 0.00 | 96 | 1009.3 |